EW6604 Weather Reports


Display with metric or nautical units.
time (UTC)temp
F
wind
direction
speed
MPH
gust
MPH
rain 1hr
in
rain 24hr
in
rain mn
in
humidity
%
barometer
mb
20260905114723 77 160 0.0 0.0 0.00 1.18 0.01 95 1014.0
20260905114227 77 160 0.0 0.0 0.00 1.18 0.01 95 1013.9
20260905113732 77 160 0.0 0.0 0.00 1.18 0.01 95 1013.8
20260905113236 76 160 0.0 0.0 0.00 1.18 0.01 95 1013.8
20260905112720 77 159 0.0 0.0 0.00 1.18 0.01 95 1013.9
20260905112244 77 160 0.0 0.0 0.00 1.18 0.01 95 1013.8
20260905111727 76 160 0.0 0.0 0.00 1.18 0.01 95 1013.8
20260905111231 76 160 0.0 0.0 0.00 1.18 0.01 95 1013.7
20260905110714 76 160 0.0 0.0 0.00 1.18 0.01 95 1013.7
20260905110221 76 160 0.0 0.0 0.00 1.18 0.01 95 1013.7
20260905105725 76 160 0.0 0.0 0.00 1.18 0.01 95 1013.7
20260905105250 76 160 0.0 0.0 0.00 1.18 0.01 95 1013.7
20260905104734 76 160 0.0 0.0 0.00 1.18 0.01 95 1013.7
20260905104218 76 160 0.0 0.0 0.00 1.18 0.01 95 1013.7
20260905103719 76 160 0.0 0.0 0.00 1.18 0.01 95 1013.7
20260905103223 77 160 0.0 0.0 0.00 1.18 0.01 95 1013.6
20260905102728 76 158 0.0 0.0 0.00 1.18 0.01 95 1013.7
20260905102213 76 158 0.0 0.0 0.00 1.18 0.01 95 1013.6
20260905101717 76 158 0.0 0.0 0.00 1.18 0.01 95 1013.5
20260905101221 76 158 0.0 0.0 0.00 1.18 0.01 95 1013.5
20260905100736 76 158 0.0 0.0 0.00 1.18 0.01 95 1013.5
20260905100219 76 158 0.0 0.0 0.00 1.18 0.01 95 1013.4
20260905095717 76 158 0.0 0.0 0.00 1.18 0.01 95 1013.3
20260905095220 76 158 0.0 0.0 0.00 1.18 0.01 95 1013.3
20260905094724 76 158 0.0 0.0 0.00 1.18 0.01 95 1013.3
20260905094228 76 158 0.0 0.0 0.00 1.18 0.01 95 1013.3
20260905093732 76 158 0.0 0.0 0.00 1.18 0.01 95 1013.4
20260905093216 76 158 0.0 0.0 0.00 1.18 0.01 95 1013.3
20260905092717 76 158 0.0 0.0 0.00 1.18 0.01 95 1013.3
20260905092225 76 158 0.0 0.0 0.00 1.18 0.01 95 1013.3
20260905091729 76 158 0.0 0.0 0.00 1.18 0.01 95 1013.4
20260905091252 76 158 0.0 0.0 0.00 1.18 0.01 95 1013.4
20260905090715 76 158 0.0 0.0 0.00 1.18 0.01 95 1013.4
20260905090220 76 158 0.0 0.0 0.00 1.18 0.01 95 1013.3
20260905085724 76 158 0.0 0.0 0.00 1.18 0.01 95 1013.4
20260905085228 76 158 0.0 0.0 0.00 1.18 0.01 95 1013.5
20260905084713 76 158 0.0 0.0 0.00 1.18 0.01 95 1013.5
20260905084217 76 158 0.0 0.0 0.00 1.18 0.01 95 1013.5
20260905083741 76 158 0.0 0.0 0.00 1.18 0.01 95 1013.5
20260905083244 76 158 0.0 0.0 0.00 1.18 0.01 95 1013.4
20260905082726 76 158 0.0 0.0 0.00 1.18 0.01 95 1013.4
20260905082228 76 159 0.0 0.0 0.00 1.18 0.01 95 1013.5
20260905081716 76 159 0.0 0.0 0.00 1.18 0.01 95 1013.5
20260905081217 77 159 0.0 0.0 0.00 1.18 0.01 95 1013.4
20260905080730 76 158 0.0 0.0 0.00 1.18 0.01 95 1013.4
20260905080215 76 159 0.0 0.0 0.00 1.18 0.01 95 1013.3
20260905075716 76 159 0.0 0.0 0.00 1.18 0.01 95 1013.3
20260905075217 76 159 0.0 0.0 0.00 1.18 0.01 95 1013.2
20260905074719 76 160 0.0 0.0 0.00 1.18 0.01 95 1013.2
20260905074223 76 159 0.0 0.0 0.00 1.18 0.01 95 1013.2
20260905073217 76 159 0.0 0.0 0.00 1.18 0.01 95 1013.1
20260905072730 76 159 0.0 0.0 0.00 1.18 0.01 95 1013.2
20260905072213 76 159 0.0 0.0 0.00 1.18 0.01 95 1013.2
20260905071717 76 158 0.0 0.0 0.00 1.18 0.01 95 1013.3
20260905071242 76 161 0.0 0.0 0.00 1.18 0.01 95 1013.3
20260905070725 76 161 0.0 0.0 0.00 1.18 0.01 95 1013.4
20260905070249 76 161 0.0 0.0 0.00 1.18 0.01 95 1013.5
20260905065732 76 161 0.0 0.0 0.00 1.18 0.01 95 1013.5
20260905065217 76 161 0.0 0.0 0.00 1.18 0.01 95 1013.4
20260905064725 76 163 0.0 0.0 0.00 1.18 0.01 95 1013.5
20260905064228 76 163 0.0 0.0 0.00 1.18 0.01 95 1013.6
20260905063729 76 162 0.0 0.0 0.00 1.18 0.01 95 1013.7
20260905063230 76 162 0.0 0.0 0.00 1.18 0.01 95 1013.8
20260905062714 76 163 0.0 0.0 0.00 1.18 0.01 95 1013.9
20260905062216 76 163 0.0 0.0 0.00 1.18 0.01 95 1013.9
20260905061719 76 162 0.0 0.0 0.00 1.18 0.01 95 1014.0
20260905061223 76 163 0.0 0.0 0.00 1.18 0.01 95 1014.0
20260905060717 76 163 0.0 0.0 0.00 1.18 0.01 95 1014.2
20260905060240 76 163 0.0 0.0 0.00 1.18 0.01 95 1014.3
20260905055723 76 162 0.0 0.0 0.00 1.18 0.01 95 1014.2
20260905055246 76 150 0.0 0.0 0.00 1.18 0.01 95 1014.3
20260905054749 76 149 0.0 0.0 0.00 1.18 0.01 95 1014.4
20260905054231 76 127 0.0 0.0 0.00 1.18 0.01 95 1014.5
20260905053719 76 146 0.0 0.0 0.00 1.18 0.01 95 1014.6
20260905053224 76 147 0.0 0.0 0.00 1.18 0.01 95 1014.6
20260905052748 76 148 0.0 0.0 0.00 1.18 0.01 95 1014.6
20260905052227 76 141 0.0 0.0 0.00 1.18 0.01 95 1014.7
20260905051751 76 140 0.0 0.0 0.00 1.18 0.01 95 1014.7
20260905051231 76 191 0.0 0.0 0.01 1.18 0.01 95 1014.7
20260905050716 76 138 0.0 0.0 0.01 1.18 0.01 95 1014.8
20260905050241 76 201 0.0 0.0 0.01 1.18 0.01 95 1014.8
20260905045723 76 201 0.0 0.0 0.01 1.18 0.01 95 1014.8
20260905045248 76 201 0.0 0.0 0.01 1.18 0.01 95 1014.8
20260905044730 76 201 0.0 0.0 0.01 1.18 0.01 95 1014.9
20260905044213 76 201 0.0 0.0 0.01 1.18 0.01 95 1014.9
20260905043737 76 203 0.0 0.0 0.01 1.18 0.01 95 1014.9
20260905043239 76 202 0.0 0.0 0.02 1.18 0.01 95 1014.9
20260905042741 76 202 0.0 0.0 0.02 1.18 0.01 95 1014.9
20260905042244 76 204 0.0 0.0 0.02 1.18 0.01 95 1014.9
20260905041727 76 205 0.0 0.0 0.02 1.18 0.01 95 1014.9
20260905041231 76 206 0.0 0.0 0.01 1.17 0.00 95 1014.9
20260905040743 76 192 0.0 0.0 0.02 1.17 0.00 95 1014.9
20260905040224 76 191 0.0 0.0 0.02 1.17 0.00 95 1015.0
20260905035745 76 191 0.0 0.0 0.02 1.17 1.17 95 1015.0
20260905035248 76 205 0.0 0.0 0.02 1.17 1.17 95 1015.1
20260905034712 76 189 0.0 0.0 0.02 1.17 1.17 95 1015.2
20260905034217 76 189 0.0 0.0 0.03 1.17 1.17 95 1015.2
20260905033719 76 190 0.0 0.0 0.03 1.17 1.17 95 1015.2
20260905033222 76 190 0.0 0.0 0.02 1.16 1.16 95 1015.3
20260905032727 76 190 0.0 0.0 0.02 1.16 1.16 95 1015.2
20260905032231 76 190 0.0 0.0 0.02 1.16 1.16 95 1015.2
20260905031715 76 190 0.0 0.0 0.02 1.16 1.16 95 1015.2
20260905031238 76 189 0.0 0.0 0.02 1.16 1.16 95 1015.2
20260905030719 76 189 0.0 0.0 0.01 1.15 1.15 95 1015.2
20260905030223 76 193 0.0 0.0 0.01 1.15 1.15 95 1015.2
20260905025746 76 189 0.0 0.0 0.01 1.15 1.15 95 1015.3
20260905025227 76 191 0.0 0.0 0.01 1.15 1.15 95 1015.3
20260905024731 76 191 0.0 0.0 0.01 1.15 1.15 95 1015.4
20260905024219 76 177 0.0 0.0 0.00 1.14 1.14 95 1015.4
20260905023743 76 187 0.0 0.0 0.00 1.14 1.14 95 1015.5
20260905023226 76 187 0.0 0.0 0.00 1.14 1.14 95 1015.4
20260905022730 76 187 0.0 0.0 0.00 1.14 1.14 95 1015.4
20260905022215 76 94 0.0 0.0 0.00 1.14 1.14 95 1015.4
20260905021719 75 99 0.0 0.0 0.00 1.14 1.14 94 1015.3
20260905021223 76 106 0.0 0.0 0.00 1.14 1.14 95 1015.4
20260905020718 76 104 0.0 0.0 0.01 1.14 1.14 95 1015.4
20260905020221 75 120 0.0 0.0 0.01 1.14 1.14 95 1015.4
20260905015722 76 120 0.0 0.0 0.01 1.14 1.14 95 1015.4
20260905015248 75 176 0.0 1.0 0.02 1.14 1.14 95 1015.3
20260905014731 75 117 0.0 1.0 0.02 1.14 1.14 95 1015.2
20260905014232 75 151 0.0 1.0 0.04 1.14 1.14 95 1015.1
20260905013719 75 130 0.0 2.0 0.05 1.14 1.14 95 1015.0
20260905013222 75 158 1.0 2.0 0.06 1.14 1.14 94 1014.9
20260905012726 75 99 0.0 2.0 0.07 1.14 1.14 94 1014.8
20260905011720 75 118 1.0 3.0 0.08 1.14 1.14 94 1014.8
20260905011303 75 121 0.0 3.0 0.07 1.13 1.13 94 1014.8
20260905010748 75 90 1.0 4.0 0.08 1.13 1.13 94 1014.8
20260905010214 75 108 1.0 6.0 0.08 1.13 1.13 94 1014.8
20260905005737 75 85 3.0 6.0 0.08 1.13 1.13 94 1014.8
20260905005218 75 145 1.0 7.0 0.08 1.12 1.12 94 1014.9
20260905004721 75 70 4.0 6.0 0.07 1.11 1.11 94 1015.0
20260905004244 75 123 1.0 5.0 0.06 1.10 1.10 94 1015.1
20260905003729 75 132 3.0 6.0 0.05 1.09 1.09 94 1015.2
20260905003232 75 92 3.0 8.0 0.04 1.08 1.08 94 1015.3
20260905002716 75 78 4.0 8.0 0.03 1.07 1.07 94 1015.3
20260905002220 75 128 3.0 7.0 0.02 1.06 1.06 94 1015.2
20260905001744 75 93 4.0 7.0 0.02 1.06 1.06 94 1015.2
20260905001227 75 127 3.0 6.0 0.02 1.06 1.06 94 1015.2
20260905000719 75 93 2.0 4.0 0.01 1.05 1.05 93 1015.3
20260905000223 75 139 0.0 2.0 0.01 1.05 1.05 93 1015.2
20260904235727 75 141 1.0 2.0 0.01 1.05 1.05 93 1015.0
20260904235215 75 130 0.0 2.0 0.01 1.04 1.04 93 1014.8
20260904234720 75 132 1.0 2.0 0.01 1.04 1.04 93 1014.8
20260904234222 75 84 0.0 6.0 0.02 1.04 1.04 93 1014.8
20260904233724 75 103 4.0 8.0 0.03 1.04 1.04 93 1014.8
20260904233228 75 73 6.0 8.0 0.05 1.04 1.04 93 1014.7
20260904232731 75 120 2.0 7.0 0.08 1.04 1.04 93 1014.7
20260904232214 75 99 1.0 3.0 0.13 1.04 1.04 93 1014.6
20260904231717 75 134 1.0 3.0 0.16 1.04 1.04 93 1014.6
20260904231217 75 153 1.0 4.0 0.22 1.04 1.04 93 1014.8
20260904230720 75 127 2.0 4.0 0.32 1.04 1.04 93 1014.7
20260904230224 75 99 1.0 5.0 0.47 1.04 1.04 93 1014.6
20260904225712 75 215 1.0 10.0 0.76 1.04 1.04 93 1014.9
20260904225213 75 120 3.0 10.0 0.98 1.03 1.03 92 1015.1
20260904224716 76 106 3.0 7.0 1.03 1.03 1.03 92 1015.1
20260904224214 76 126 2.0 6.0 1.02 1.02 1.02 92 1015.0
20260904223735 77 185 3.0 7.0 1.00 1.00 1.00 93 1014.9
20260904215732 78 281 7.0 22.0 0.27 0.27 0.27 90 1014.7
20260904215215 81 310 12.0 22.0 0.05 0.05 0.05 87 1014.7
20260904214720 84 299 9.0 22.0 0.00 0.00 0.00 85 1014.4
20260904214205 85 207 7.0 14.0 0.00 0.00 0.00 86 1013.8
20260904213710 86 94 11.0 15.0 0.00 0.00 0.00 85 1013.6
20260904213214 86 87 7.0 17.0 0.00 0.00 0.00 85 1013.6
20260904212719 86 118 8.0 18.0 0.00 0.00 0.00 85 1013.3
20260904212244 86 92 12.0 18.0 0.00 0.00 0.00 84 1012.9
20260904211711 86 90 14.0 19.0 0.00 0.00 0.00 83 1013.1
20260904211215 86 85 13.0 18.0 0.00 0.00 0.00 84 1013.1
20260904210720 87 76 12.0 18.0 0.00 0.00 0.00 86 1013.0
20260904210245 87 99 14.0 18.0 0.00 0.00 0.00 85 1012.9
20260904205709 87 119 12.0 18.0 0.00 0.00 0.00 84 1012.8
20260904205213 87 85 14.0 19.0 0.00 0.00 0.00 84 1012.8
20260904204718 87 82 12.0 19.0 0.00 0.00 0.00 86 1012.7
20260904204223 86 84 14.0 17.0 0.00 0.00 0.00 86 1012.9
20260904203708 86 84 12.0 16.0 0.00 0.00 0.00 86 1013.1
20260904203233 86 83 13.0 17.0 0.00 0.00 0.00 85 1013.1
20260904202716 86 75 15.0 17.0 0.00 0.00 0.00 85 1013.1
20260904202221 87 73 14.0 17.0 0.00 0.00 0.00 84 1013.0
20260904201709 87 78 15.0 17.0 0.00 0.00 0.00 83 1013.1
20260904201214 87 95 12.0 18.0 0.00 0.00 0.00 84 1013.2
20260904200730 87 80 14.0 19.0 0.00 0.00 0.00 83 1013.3
20260904200214 87 82 16.0 19.0 0.00 0.00 0.00 83 1013.4
20260904195718 88 81 14.0 17.0 0.00 0.00 0.00 82 1013.6
20260904195223 89 72 11.0 14.0 0.00 0.00 0.00 78 1013.5
20260904194708 90 83 8.0 13.0 0.00 0.00 0.00 72 1013.5
20260904194213 90 71 5.0 7.0 0.00 0.00 0.00 73 1013.6
20260904193716 90 66 6.0 7.0 0.00 0.00 0.00 73 1013.6
20260904193221 90 72 6.0 7.0 0.00 0.00 0.00 70 1013.5
20260904192706 90 71 4.0 6.0 0.00 0.00 0.00 71 1013.5
20260904192210 90 76 4.0 6.0 0.00 0.00 0.00 70 1013.6
20260904191719 91 140 3.0 6.0 0.00 0.00 0.00 73 1013.7
20260904191223 91 86 2.0 3.0 0.00 0.00 0.00 72 1013.7
20260904190708 91 99 1.0 4.0 0.00 0.00 0.00 73 1013.9
20260904190231 91 125 1.0 4.0 0.00 0.03 0.00 72 1013.9
20260904185714 91 106 1.0 3.0 0.00 0.03 0.00 72 1014.1
20260904185219 91 160 1.0 4.0 0.00 0.03 0.00 71 1014.1
20260904184724 91 182 2.0 5.0 0.00 0.03 0.00 70 1014.0
20260904184208 91 110 2.0 8.0 0.00 0.03 0.00 71 1014.1
20260904183713 91 83 2.0 8.0 0.00 0.03 0.00 71 1014.3
20260904183218 91 80 2.0 6.0 0.00 0.03 0.00 71 1014.3
20260904182722 91 196 2.0 5.0 0.00 0.03 0.00 70 1014.4
20260904182210 91 120 1.0 2.0 0.00 0.03 0.00 71 1014.5
20260904181712 90 92 1.0 7.0 0.00 0.03 0.00 71 1014.6
20260904181217 90 142 1.0 7.0 0.00 0.03 0.00 74 1014.6
20260904180714 90 77 5.0 7.0 0.00 0.03 0.00 72 1014.6
20260904180219 90 82 5.0 7.0 0.00 0.03 0.00 71 1014.7
20260904175744 91 72 5.0 10.0 0.00 0.03 0.00 70 1014.7
20260904175208 91 123 4.0 10.0 0.00 0.03 0.00 69 1014.8
20260904174713 91 56 1.0 4.0 0.00 0.03 0.00 72 1014.9
20260904174218 91 130 3.0 4.0 0.00 0.03 0.00 70 1014.9
20260904173723 91 107 2.0 4.0 0.00 0.03 0.00 71 1014.8
20260904173227 90 195 1.0 6.0 0.00 0.03 0.00 70 1014.9
20260904172711 90 288 2.0 7.0 0.00 0.03 0.00 71 1015.0
20260904172236 90 305 3.0 9.0 0.00 0.03 0.00 72 1015.0
20260904171719 91 271 4.0 9.0 0.00 0.03 0.00 72 1015.2
20260904170713 90 47 0.0 6.0 0.00 0.03 0.00 72 1015.4
20260904170218 90 82 0.0 6.0 0.00 0.03 0.00 73 1015.4
20260904165720 90 139 2.0 4.0 0.00 0.19 0.00 73 1015.4
20260904165223 89 114 0.0 3.0 0.00 0.19 0.00 73 1015.6
20260904164708 89 63 1.0 3.0 0.00 0.19 0.00 74 1015.6
20260904164213 89 78 1.0 5.0 0.00 0.19 0.00 74 1015.8
20260904163718 89 77 3.0 5.0 0.00 0.19 0.00 74 1015.8
20260904163222 89 354 1.0 3.0 0.00 0.19 0.00 74 1015.9
20260904162707 89 64 2.0 3.0 0.00 0.19 0.00 74 1015.9
20260904162217 89 55 1.0 3.0 0.00 0.19 0.00 74 1015.9
20260904161721 89 77 1.0 3.0 0.00 0.19 0.00 74 1015.9
20260904161205 88 132 2.0 7.0 0.00 0.19 0.00 75 1016.0
20260904160741 88 279 5.0 7.0 0.00 0.19 0.00 75 1016.0
20260904160220 88 273 1.0 6.0 0.00 0.19 0.00 76 1015.9
20260904155705 88 201 0.0 4.0 0.00 0.81 0.00 76 1016.0
20260904155211 88 284 1.0 4.0 0.00 0.81 0.00 77 1016.0
20260904154717 88 337 2.0 4.0 0.00 0.81 0.00 76 1016.1
20260904154222 88 310 1.0 5.0 0.00 0.81 0.00 76 1016.1
20260904153707 88 247 2.0 5.0 0.00 0.81 0.00 76 1016.1
20260904153213 88 320 0.0 4.0 0.00 0.81 0.00 77 1016.1
20260904152718 87 185 1.0 5.0 0.00 0.81 0.00 78 1016.1
20260904152227 88 316 1.0 3.0 0.00 0.81 0.00 79 1016.1
20260904151713 87 213 1.0 4.0 0.00 0.81 0.00 80 1016.1
20260904151218 87 336 2.0 4.0 0.00 0.81 0.00 78 1016.1
20260904150744 87 57 0.0 5.0 0.00 0.81 0.00 79 1016.2
20260904150209 87 109 1.0 6.0 0.00 0.81 0.00 79 1016.1
20260904145714 87 288 3.0 6.0 0.00 0.81 0.00 77 1016.0
20260904145219 87 302 1.0 3.0 0.00 0.81 0.00 77 1016.1
20260904144704 87 260 1.0 4.0 0.00 0.81 0.00 78 1016.1
20260904144209 87 79 0.0 4.0 0.00 0.81 0.00 80 1016.0
20260904143734 87 267 0.0 2.0 0.00 0.81 0.00 80 1016.0
20260904143216 87 194 1.0 4.0 0.00 0.81 0.00 80 1015.9
20260904142720 87 245 2.0 4.0 0.00 0.81 0.00 81 1015.9
20260904142209 87 125 0.0 3.0 0.00 0.81 0.00 81 1015.8
20260904141714 86 104 2.0 3.0 0.00 0.81 0.00 81 1015.7
20260904141219 86 238 0.0 4.0 0.00 0.81 0.00 82 1015.6
20260904140716 85 253 1.0 5.0 0.00 0.81 0.00 83 1015.6
20260904140220 85 334 2.0 5.0 0.00 0.81 0.00 82 1015.5
20260904135724 86 275 1.0 4.0 0.00 0.81 0.00 82 1015.5
20260904135209 86 272 2.0 4.0 0.00 0.81 0.00 82 1015.5
20260904134715 87 156 1.0 3.0 0.00 0.81 0.00 83 1015.5
20260904134218 86 199 1.0 5.0 0.00 0.81 0.00 84 1015.4
20260904133743 85 114 1.0 5.0 0.00 0.81 0.00 84 1015.4
20260904133205 85 197 1.0 5.0 0.00 0.81 0.00 84 1015.4
20260904132730 85 153 2.0 5.0 0.00 0.81 0.00 84 1015.5
20260904132234 85 197 1.0 5.0 0.00 0.81 0.00 85 1015.4
20260904131718 85 160 1.0 4.0 0.00 0.81 0.00 86 1015.4
20260904131358 85 215 2.0 4.0 0.00 0.81 0.00 86 1015.5
20260904130213 85 160 1.0 3.0 0.00 0.81 0.00 86 1015.4
20260904125718 85 144 1.0 3.0 0.00 0.81 0.00 87 1015.5
20260904125222 84 146 0.0 4.0 0.00 0.81 0.00 87 1015.5
20260904124707 84 139 1.0 4.0 0.00 0.81 0.00 87 1015.5
20260904124210 84 159 1.0 2.0 0.00 0.81 0.00 88 1015.5
20260904123735 84 160 0.0 1.0 0.00 0.81 0.00 88 1015.5
20260904123219 84 149 0.0 1.0 0.00 0.81 0.00 89 1015.6
20260904122724 84 138 0.0 2.0 0.00 0.81 0.00 91 1015.6
20260904122208 83 146 0.0 0.0 0.00 0.81 0.00 93 1015.6
20260904121717 82 141 0.0 0.0 0.00 0.81 0.00 94 1015.5
20260904121222 81 141 0.0 0.0 0.00 0.81 0.00 94 1015.4
20260904120719 79 141 0.0 0.0 0.00 0.81 0.00 94 1015.4
20260904120244 79 141 0.0 0.0 0.00 0.81 0.00 94 1015.4
20260904115239 78 141 0.0 0.0 0.00 0.81 0.00 95 1015.2